SKW312 KSAN-KSJC

Flight info

Callsign SKW312
Flight time N/A
Altitude 32000
Route PADRZ2 IKAYE TESEA SCTRR TROXX SILCN6
Aircraft E75L/M-SDE3GILORVW/S

Departure

Time 2026-04-25 15:42
Airport San Diego International Airport (KSAN)

Arrival

Time N/A
Airport Norman Y. Mineta San Jose International Airport (KSJC)
Time Latitude Longitude Altitude Speed Heading
2026-04-25 15:19 32.73393 -117.20050 20 ft 0 kts 253°
2026-04-25 15:27 32.73399 -117.20028 20 ft 3 kts 256°
2026-04-25 15:28 32.73402 -117.20005 22 ft 3 kts 265°
2026-04-25 15:28 32.73401 -117.19982 22 ft 3 kts 295°
2026-04-25 15:28 32.73392 -117.19973 21 ft 2 kts 10°
2026-04-25 15:28 32.73386 -117.19974 25 ft 0 kts 12°
2026-04-25 15:33 32.73395 -117.19972 22 ft 3 kts 12°
2026-04-25 15:33 32.73424 -117.19964 20 ft 6 kts 12°
2026-04-25 15:33 32.73468 -117.19944 22 ft 8 kts 39°
2026-04-25 15:33 32.73474 -117.19884 23 ft 8 kts 106°
2026-04-25 15:34 32.73455 -117.19806 23 ft 11 kts 106°
2026-04-25 15:34 32.73431 -117.19704 23 ft 14 kts 106°
2026-04-25 15:34 32.73402 -117.19581 23 ft 17 kts 105°
2026-04-25 15:34 32.73391 -117.19537 21 ft 18 kts 106°
2026-04-25 15:35 32.73284 -117.19096 22 ft 24 kts 105°
2026-04-25 15:35 32.73238 -117.18900 22 ft 25 kts 106°
2026-04-25 15:35 32.73186 -117.18691 20 ft 27 kts 106°
2026-04-25 15:36 32.73076 -117.18239 20 ft 24 kts 107°
2026-04-25 15:36 32.73028 -117.18044 21 ft 26 kts 107°
2026-04-25 15:36 32.72996 -117.17907 21 ft 12 kts 105°
2026-04-25 15:37 32.72971 -117.17806 20 ft 13 kts 108°
2026-04-25 15:37 32.72951 -117.17731 21 ft 8 kts 102°
2026-04-25 15:37 32.72954 -117.17682 20 ft 6 kts 73°
2026-04-25 15:37 32.72961 -117.17655 22 ft 4 kts 72°
2026-04-25 15:38 32.72979 -117.17616 21 ft 6 kts 38°
2026-04-25 15:38 32.73008 -117.17606 20 ft 7 kts 348°
2026-04-25 15:38 32.73036 -117.17644 20 ft 0 kts 286°
2026-04-25 15:42 32.73038 -117.17653 20 ft 6 kts 286°
2026-04-25 15:42 32.73108 -117.17948 21 ft 79 kts 286°
2026-04-25 15:42 32.73338 -117.18881 33 ft 153 kts 286°
2026-04-25 15:42 32.73672 -117.20216 647 ft 183 kts 290°
2026-04-25 15:43 32.74268 -117.21713 1035 ft 210 kts 295°
2026-04-25 15:43 32.74897 -117.23208 2090 ft 200 kts 294°
2026-04-25 15:43 32.75523 -117.24699 3005 ft 204 kts 295°
2026-04-25 15:43 32.76158 -117.26218 3973 ft 207 kts 294°
2026-04-25 15:44 32.76897 -117.27712 4956 ft 210 kts 309°
2026-04-25 15:44 32.77916 -117.29014 5724 ft 225 kts 313°
2026-04-25 15:44 32.79000 -117.30450 6387 ft 241 kts 307°
2026-04-25 15:44 32.80069 -117.32027 7089 ft 255 kts 306°
2026-04-25 15:45 32.81187 -117.33729 7905 ft 265 kts 304°
2026-04-25 15:45 32.82317 -117.35476 8888 ft 268 kts 303°
2026-04-25 15:45 32.83458 -117.37250 9844 ft 272 kts 302°
2026-04-25 15:45 32.84235 -117.38460 10390 ft 274 kts 302°
2026-04-25 15:46 32.85794 -117.40887 11443 ft 279 kts 302°
2026-04-25 15:46 32.86980 -117.42729 12206 ft 282 kts 302°
2026-04-25 15:46 32.88180 -117.44591 12960 ft 285 kts 302°
2026-04-25 15:46 32.89395 -117.46477 13710 ft 289 kts 302°
2026-04-25 15:47 32.90606 -117.48358 14362 ft 292 kts 302°
2026-04-25 15:47 32.91847 -117.50286 15016 ft 295 kts 301°
2026-04-25 15:47 32.93098 -117.52235 15674 ft 298 kts 301°
2026-04-25 15:47 32.94363 -117.54204 16328 ft 301 kts 301°
2026-04-25 15:48 32.95640 -117.56196 16965 ft 304 kts 301°
2026-04-25 15:48 32.96934 -117.58213 17593 ft 308 kts 301°
2026-04-25 15:48 32.98250 -117.60272 17943 ft 321 kts 301°
2026-04-25 15:48 32.99638 -117.62441 18138 ft 337 kts 302°
2026-04-25 15:49 33.01091 -117.64707 18419 ft 349 kts 302°
2026-04-25 15:49 33.02574 -117.67015 18964 ft 351 kts 301°
2026-04-25 15:49 33.04066 -117.69328 19524 ft 354 kts 302°
2026-04-25 15:49 33.05672 -117.71581 20078 ft 358 kts 304°
2026-04-25 15:50 33.07361 -117.73784 20633 ft 362 kts 307°
2026-04-25 15:50 33.09242 -117.75830 21153 ft 369 kts 311°
2026-04-25 15:50 33.11186 -117.77842 21670 ft 372 kts 311°
2026-04-25 15:50 33.13159 -117.79853 22180 ft 374 kts 311°
2026-04-25 15:51 33.15149 -117.81878 22663 ft 377 kts 311°
2026-04-25 15:51 33.16474 -117.83224 22994 ft 379 kts 311°
2026-04-25 15:51 33.19156 -117.85975 23597 ft 379 kts 308°
2026-04-25 15:51 33.21048 -117.88179 23975 ft 381 kts 307°
2026-04-25 15:52 33.22940 -117.90413 24342 ft 383 kts 307°
2026-04-25 15:52 33.24834 -117.92671 24702 ft 386 kts 307°
2026-04-25 15:52 33.26738 -117.94945 25068 ft 389 kts 307°
2026-04-25 15:52 33.28656 -117.97236 25434 ft 391 kts 307°
2026-04-25 15:53 33.30588 -117.99545 25791 ft 394 kts 307°
2026-04-25 15:53 33.32527 -118.01862 26156 ft 396 kts 307°
2026-04-25 15:53 33.34483 -118.04201 26508 ft 399 kts 307°
2026-04-25 15:53 33.36448 -118.06553 26858 ft 401 kts 307°
2026-04-25 15:54 33.38427 -118.08923 27205 ft 403 kts 307°
2026-04-25 15:54 33.40413 -118.11304 27540 ft 406 kts 307°
2026-04-25 15:54 33.42410 -118.13697 27873 ft 408 kts 307°
2026-04-25 15:54 33.44422 -118.16112 28190 ft 410 kts 308°
2026-04-25 15:55 33.46441 -118.18536 28500 ft 413 kts 307°
2026-04-25 15:55 33.48473 -118.20978 28800 ft 415 kts 308°
2026-04-25 15:55 33.50512 -118.23430 29095 ft 417 kts 308°
2026-04-25 15:55 33.52580 -118.25921 29088 ft 426 kts 308°
2026-04-25 15:56 33.54684 -118.28453 29244 ft 430 kts 308°
2026-04-25 15:56 33.56800 -118.31000 29601 ft 430 kts 308°
2026-04-25 15:56 33.58908 -118.33541 29983 ft 430 kts 308°
2026-04-25 15:56 33.61015 -118.36084 30290 ft 430 kts 308°
2026-04-25 15:57 33.63113 -118.38619 30615 ft 429 kts 308°
2026-04-25 15:57 33.65216 -118.41159 30950 ft 428 kts 308°
2026-04-25 15:57 33.67306 -118.43689 31294 ft 426 kts 308°
2026-04-25 15:57 33.69390 -118.46211 31621 ft 425 kts 308°
2026-04-25 15:58 33.71473 -118.48734 31835 ft 426 kts 308°
2026-04-25 15:58 33.73558 -118.51265 31927 ft 426 kts 308°
2026-04-25 15:58 33.77730 -118.56336 31987 ft 427 kts 308°
2026-04-25 15:59 33.81901 -118.61416 31990 ft 427 kts 308°
2026-04-25 15:59 33.86042 -118.66471 31993 ft 427 kts 308°
2026-04-25 16:00 33.88830 -118.69880 31997 ft 427 kts 308°
2026-04-25 16:00 33.94364 -118.76653 31990 ft 425 kts 308°
2026-04-25 16:01 33.98517 -118.81744 31995 ft 426 kts 308°
2026-04-25 16:01 34.02670 -118.86844 32004 ft 426 kts 308°
2026-04-25 16:02 34.06822 -118.91952 32020 ft 427 kts 308°
2026-04-25 16:02 34.10969 -118.97061 32025 ft 426 kts 308°
2026-04-25 16:03 34.15111 -119.02172 32013 ft 426 kts 309°
2026-04-25 16:03 34.19248 -119.07280 32008 ft 425 kts 309°
2026-04-25 16:04 34.23383 -119.12392 32005 ft 425 kts 309°
2026-04-25 16:04 34.27515 -119.17504 32005 ft 425 kts 309°
2026-04-25 16:05 34.31642 -119.22612 32002 ft 424 kts 309°
2026-04-25 16:06 34.37823 -119.30277 31994 ft 424 kts 309°
2026-04-25 16:06 34.41942 -119.35390 31976 ft 423 kts 309°
2026-04-25 16:07 34.46063 -119.40503 31975 ft 424 kts 309°
2026-04-25 16:07 34.50150 -119.45579 31971 ft 423 kts 308°
2026-04-25 16:08 34.54264 -119.50689 31970 ft 423 kts 308°
2026-04-25 16:08 34.58375 -119.55803 31972 ft 423 kts 308°
2026-04-25 16:09 34.62477 -119.60920 31977 ft 423 kts 308°
2026-04-25 16:09 34.66586 -119.66046 31962 ft 425 kts 308°
2026-04-25 16:10 34.70693 -119.71168 31973 ft 423 kts 308°
2026-04-25 16:10 34.74803 -119.76301 31968 ft 422 kts 308°
2026-04-25 16:11 34.78911 -119.81441 31974 ft 423 kts 308°
2026-04-25 16:11 34.83018 -119.86578 31982 ft 422 kts 308°
2026-04-25 16:12 34.87117 -119.91705 31995 ft 423 kts 308°
2026-04-25 16:12 34.91217 -119.96840 31996 ft 422 kts 307°
2026-04-25 16:13 34.95315 -120.01976 32000 ft 422 kts 307°
2026-04-25 16:13 34.99412 -120.07110 32005 ft 422 kts 307°
2026-04-25 16:14 35.03506 -120.12249 32008 ft 422 kts 307°
2026-04-25 16:14 35.07597 -120.17394 32016 ft 422 kts 307°
2026-04-25 16:15 35.11683 -120.22540 32011 ft 422 kts 307°
2026-04-25 16:15 35.15770 -120.27697 32004 ft 422 kts 307°
2026-04-25 16:16 35.19848 -120.32853 32013 ft 422 kts 307°
2026-04-25 16:16 35.23928 -120.38023 32016 ft 422 kts 307°
2026-04-25 16:17 35.27998 -120.43189 32013 ft 422 kts 307°
2026-04-25 16:17 35.32368 -120.48037 31995 ft 438 kts 324°
2026-04-25 16:18 35.38205 -120.50639 32021 ft 449 kts 335°
2026-04-25 16:18 35.44051 -120.53213 32017 ft 442 kts 328°
2026-04-25 16:19 35.49590 -120.56385 32021 ft 442 kts 327°
2026-04-25 16:19 35.54933 -120.59995 32024 ft 436 kts 321°
2026-04-25 16:20 35.62649 -120.66001 32028 ft 436 kts 321°
2026-04-25 16:21 35.70294 -120.72010 31715 ft 427 kts 321°
2026-04-25 16:21 35.72808 -120.73996 30452 ft 433 kts 321°
2026-04-25 16:21 35.75323 -120.75975 29116 ft 436 kts 321°
2026-04-25 16:21 35.77878 -120.77986 28039 ft 433 kts 322°
2026-04-25 16:22 35.80419 -120.79986 27271 ft 422 kts 321°
2026-04-25 16:22 35.82837 -120.81896 26412 ft 416 kts 322°
2026-04-25 16:22 35.85285 -120.83829 26032 ft 408 kts 322°
2026-04-25 16:22 35.87648 -120.85699 26037 ft 410 kts 322°
2026-04-25 16:23 35.90051 -120.87599 26029 ft 411 kts 322°
2026-04-25 16:23 35.91678 -120.88886 26028 ft 411 kts 322°
2026-04-25 16:23 35.94864 -120.91409 26016 ft 412 kts 322°
2026-04-25 16:23 35.97280 -120.93325 26008 ft 412 kts 322°
2026-04-25 16:24 35.99702 -120.95232 26008 ft 412 kts 322°
2026-04-25 16:24 36.01273 -120.96605 26005 ft 410 kts 318°
2026-04-25 16:24 36.03559 -120.98735 26005 ft 410 kts 318°
2026-04-25 16:24 36.05811 -121.00861 25997 ft 408 kts 317°
2026-04-25 16:25 36.08067 -121.03007 25999 ft 409 kts 317°
2026-04-25 16:25 36.09558 -121.04426 26003 ft 409 kts 317°
2026-04-25 16:25 36.12578 -121.07302 26000 ft 410 kts 318°
2026-04-25 16:25 36.14838 -121.09455 26000 ft 410 kts 318°
2026-04-25 16:26 36.17092 -121.11604 26001 ft 410 kts 318°
2026-04-25 16:26 36.19357 -121.13764 25996 ft 410 kts 318°
2026-04-25 16:26 36.21617 -121.15921 26000 ft 410 kts 318°
2026-04-25 16:26 36.23876 -121.18080 26000 ft 410 kts 318°
2026-04-25 16:27 36.26137 -121.20242 26001 ft 411 kts 318°
2026-04-25 16:27 36.28397 -121.22403 25999 ft 411 kts 318°
2026-04-25 16:27 36.30658 -121.24567 25998 ft 411 kts 318°
2026-04-25 16:27 36.32925 -121.26731 25992 ft 411 kts 318°
2026-04-25 16:28 36.35178 -121.28897 25782 ft 406 kts 318°
2026-04-25 16:28 36.37418 -121.31055 24773 ft 407 kts 318°
2026-04-25 16:28 36.39640 -121.33194 23962 ft 403 kts 318°
2026-04-25 16:28 36.41817 -121.35293 23106 ft 399 kts 319°
2026-04-25 16:29 36.44019 -121.37418 22237 ft 393 kts 319°
2026-04-25 16:29 36.46165 -121.39489 21403 ft 388 kts 319°
2026-04-25 16:29 36.48356 -121.41342 20589 ft 386 kts 327°
2026-04-25 16:29 36.50737 -121.42924 19869 ft 379 kts 330°
2026-04-25 16:30 36.53075 -121.44314 19123 ft 376 kts 334°
2026-04-25 16:30 36.55519 -121.45430 18373 ft 372 kts 338°
2026-04-25 16:30 36.57985 -121.46500 17568 ft 368 kts 339°
2026-04-25 16:30 36.60350 -121.47500 16811 ft 362 kts 339°
2026-04-25 16:31 36.62720 -121.48500 16067 ft 357 kts 339°
2026-04-25 16:31 36.65053 -121.49484 15347 ft 352 kts 340°
2026-04-25 16:31 36.67352 -121.50455 14640 ft 347 kts 340°
2026-04-25 16:31 36.69621 -121.51414 13955 ft 342 kts 340°
2026-04-25 16:32 36.71863 -121.52361 13204 ft 338 kts 340°
2026-04-25 16:32 36.74080 -121.53301 12439 ft 335 kts 340°
2026-04-25 16:32 36.76274 -121.54232 11695 ft 331 kts 340°
2026-04-25 16:32 36.78448 -121.55156 10974 ft 328 kts 340°
2026-04-25 16:33 36.80600 -121.56070 10608 ft 326 kts 340°
2026-04-25 16:33 36.82746 -121.56982 10378 ft 325 kts 340°
2026-04-25 16:33 36.84882 -121.57891 10188 ft 324 kts 340°
2026-04-25 16:33 36.87019 -121.58800 10014 ft 320 kts 340°
2026-04-25 16:34 36.89131 -121.59708 9187 ft 321 kts 340°
2026-04-25 16:34 36.91233 -121.60602 8482 ft 318 kts 340°
2026-04-25 16:34 36.93317 -121.61482 7796 ft 314 kts 340°
2026-04-25 16:34 36.95378 -121.62356 7131 ft 311 kts 340°
2026-04-25 16:35 36.97417 -121.63221 6500 ft 308 kts 340°
2026-04-25 16:35 36.99439 -121.64080 5808 ft 305 kts 340°
2026-04-25 16:35 37.01448 -121.64934 5104 ft 303 kts 340°
2026-04-25 16:35 37.03443 -121.65781 4614 ft 301 kts 340°
2026-04-25 16:36 37.05423 -121.66623 4364 ft 301 kts 340°
2026-04-25 16:36 37.06066 -121.66896 4282 ft 300 kts 340°
2026-04-25 16:36 37.09099 -121.68585 4007 ft 269 kts 326°
2026-04-25 16:36 37.10592 -121.69817 3964 ft 246 kts 326°
2026-04-25 16:37 37.12046 -121.70966 3982 ft 244 kts 327°
2026-04-25 16:37 37.13526 -121.72023 4020 ft 245 kts 331°
2026-04-25 16:37 37.15017 -121.72998 4021 ft 245 kts 332°
2026-04-25 16:37 37.16538 -121.73962 4011 ft 246 kts 332°
2026-04-25 16:38 37.18085 -121.74931 4008 ft 245 kts 332°
2026-04-25 16:38 37.19593 -121.75873 4008 ft 245 kts 333°
2026-04-25 16:38 37.21119 -121.76826 4009 ft 245 kts 333°
2026-04-25 16:38 37.22640 -121.77788 4006 ft 245 kts 329°
2026-04-25 16:39 37.24018 -121.79013 4000 ft 237 kts 320°
2026-04-25 16:39 37.25275 -121.80311 4015 ft 232 kts 319°
2026-04-25 16:39 37.26500 -121.81628 4034 ft 233 kts 318°
2026-04-25 16:39 37.27713 -121.82974 3961 ft 231 kts 315°
2026-04-25 16:40 37.28852 -121.84376 3741 ft 224 kts 314°
2026-04-25 16:40 37.29965 -121.85811 3143 ft 228 kts 311°
2026-04-25 16:40 37.31055 -121.87252 1747 ft 234 kts 315°
2026-04-25 16:40 37.32184 -121.88550 1168 ft 220 kts 320°
2026-04-25 16:41 37.33378 -121.89799 791 ft 228 kts 318°
2026-04-25 16:41 37.34180 -121.90691 525 ft 231 kts 316°
2026-04-25 16:41 37.36820 -121.93626 92 ft 165 kts 315°
2026-04-25 16:42 37.37596 -121.94504 368 ft 154 kts 316°